Location: ?
(35.3436°N, 139.3168°E)
Time: 06:57:08
(UTC+00:00)

Cosmos 1606 Rocket - Pass Details

Date: 29 October 2020
Orbit: 603 x 632 km, 82.5° (Epoch: 02 December)

Event Time Altitude Azimuth Distance (km) Brightness Sun altitude
Rises 19:42:44 0° 345° (NNW) 2,929 6.8 -16.7°
Reaches altitude 10° 19:45:04 10° 338° (NNW) 2,018 5.9 -16.3°
Maximum altitude 19:49:17 42° 268° (W) 907 3.9 -15.4°
Drops below altitude 10° 19:53:27 10° 198° (SSW) 2,001 6.1 -14.6°
Sets 19:55:46 0° 191° (S) 2,901 7.0 -14.1°
